Regional Weather Roundup
Issued by NWS

Home | Current Version | Previous Version | Text Only | Print | Product List | Glossary Off
Versions: 1 2 3 4 5 6 7 8 9 10 11 12 13 14 15 16 17 18 19 20 21 22 23 24 25 26 27 28 29 30 31 32 33 34 35 36 37 38 39 40 41 42 43 44 45 46 47 48 49 50

266
ASUS43 KOAX 241302
RWRNE

WEATHER ROUNDUP FOR NEBRASKA
NATIONAL WEATHER SERVICE OMAHA NE
800 AM CDT SUN JUL 24 2016

NOTES: SATELLITE DATA IS BEING USED TO AUGMENT CLOUD COVER ABOVE
       12000 FEET.
       "FAIR" INDICATES FEW OR NO CLOUDS BELOW 12,000 FEET WITH NO
       SIGNIFICANT WEATHER AND/OR OBSTRUCTIONS TO VISIBILITY.

  * THESE STATIONS DO NOT REPORT WEATHER SUCH AS RAIN...SNOW OR FOG.

NEZ001>004-019>022-054>056-241400-
NEBRASKA PANHANDLE

CITY           SKY/WX    TMP DP  RH WIND       PRES   REMARKS
SCOTTSBLUFF    MOSUNNY   67  57  70 NW10      30.12R
ALLIANCE       MOSUNNY   64  58  80 NE3       30.14R
CHADRON        PTSUNNY   60  50  69 NW3       30.13R
SIDNEY         CLOUDY    65  57  75 S5        30.16F
$$

NEZ057>060-069>072-079>082-241400-
SOUTHWEST NEBRASKA

CITY           SKY/WX    TMP DP  RH WIND       PRES   REMARKS
NORTH PLATTE   PTSUNNY   69  59  70 S10       30.05R
IMPERIAL       CLOUDY    70  62  76 CALM      30.07R
LEXINGTON      CLOUDY    70  61  75 E9        30.01R
MCCOOK         CLOUDY    70  62  76 SE6       30.03R
OGALLALA       PTSUNNY   68  60  74 NW6       30.10R
$$

NEZ005>010-023>029-035>040-094-241400-
NORTH CENTRAL NEBRASKA

CITY           SKY/WX    TMP DP  RH WIND       PRES   REMARKS
VALENTINE      CLOUDY    68  51  54 N14       30.06R
AINSWORTH      CLOUDY    66  61  84 N13       30.06S
BROKEN BOW     CLOUDY    69  62  78 NE5       30.02R
O`NEILL        SUNNY     70  64  81 N7        30.02R
ORD            MOSUNNY   69  64  84 W3        29.99R
THEDFORD       CLOUDY    68  60  75 NE3       30.07R
$$

NEZ041-046>049-061>064-073>077-083>087-241400-
SOUTH CENTRAL NEBRASKA

CITY           SKY/WX    TMP DP  RH WIND       PRES   REMARKS
GRAND ISLAND   PTSUNNY   71  66  84 N6        29.98R
AURORA         MOSUNNY   71  68  89 NE6       29.97S
HASTINGS       CLOUDY    71  66  84 NE7       29.99R
HEBRON         CLOUDY    79  70  74 E6        29.96R
HOLDREGE       CLOUDY    71  64  78 E5        30.02R
KEARNEY *      CLOUDY    70  63  78 N6        30.01R
YORK           MOSUNNY   73  66  78 NE7       29.97R
$$

NEZ011>018-030>034-042>045-241400-
NORTHEAST NEBRASKA

CITY           SKY/WX    TMP DP  RH WIND       PRES   REMARKS
NORFOLK        SUNNY     73  63  70 NW5       29.96R
ALBION         MOSUNNY   70  64  82 CALM      29.99R
BLAIR          SUNNY     78  71  79 NE10G17   29.92R
FREMONT        SUNNY     76  65  69 NE7       29.93R
TEKAMAH        SUNNY     76  70  82 N5        29.91R
WAYNE          SUNNY     70  67  90 N6        29.96R
$$

NEZ050>053-065>068-078-088>093-241400-
SOUTHEAST NEBRASKA

CITY           SKY/WX    TMP DP  RH WIND       PRES   REMARKS
LINCOLN        SUNNY     79  70  74 N6        29.93R
OMAHA EPPLEY   MOSUNNY   79  73  82 N6        29.90R
BEATRICE       MOSUNNY   80  73  80 E6        29.95R
FALLS CITY     CLOUDY    82  72  71 W8        29.90R
NEBRASKA CITY  PTSUNNY   79  78  97 N7        29.92R
PLATTSMOUTH    SUNNY     79  75  86 NE5       29.91R
$$

NEZ044-045-051>053-067-241400-
OMAHA AREA

CITY           SKY/WX    TMP DP  RH WIND       PRES   REMARKS
OMAHA EPPLEY   MOSUNNY   79  73  82 N6        29.90R
BLAIR          SUNNY     78  71  79 NE10G17   29.92R
FREMONT        SUNNY     76  65  69 NE7       29.93R
MILLARD        SUNNY     80  72  76 N6        29.91R
OFFUTT AFB     MOSUNNY   80  74  82 N9        29.90R
PLATTSMOUTH    SUNNY     79  75  86 NE5       29.91R
WAHOO          FAIR      76  70  80 N7        29.93R
$$




USA.gov is the U.S. government's official web portal to all federal, state and local government web resources and services.